Time,TemperatureF,DewpointF,PressureIn,WindDirection,WindDirectionDegrees,WindSpeedMPH,WindSpeedGustMPH,Humidity,HourlyPrecipIn,Conditions,Clouds,dailyrainin,SoftwareType,DateUTC
2013-09-02 00:04:00,66.0,59.0,-100.00,NW,315,5.0,10.0,77,-99.99,,,-99.99,,2013-09-02 05:04:00,
2013-09-02 00:12:00,66.0,59.0,-100.00,NW,315,8.0,14.0,78,-99.99,,,-99.99,,2013-09-02 05:12:00,
2013-09-02 00:44:00,66.0,59.0,-100.00,NW,315,8.0,14.0,78,-99.99,,,-99.99,,2013-09-02 05:44:00,
2013-09-02 00:52:00,66.0,59.0,-100.00,NW,315,8.0,14.0,78,-99.99,,,-99.99,,2013-09-02 05:52:00,
2013-09-02 01:03:00,66.0,59.0,-100.00,NW,315,8.0,14.0,78,-99.99,,,-99.99,,2013-09-02 06:03:00,
2013-09-02 01:43:00,64.0,58.0,-100.00,NW,315,8.0,14.0,79,-99.99,,,-99.99,,2013-09-02 06:43:00,
2013-09-02 01:52:00,64.0,58.0,-100.00,NW,315,8.0,14.0,79,-99.99,,,-99.99,,2013-09-02 06:52:00,
2013-09-02 02:01:00,64.0,58.0,-100.00,NW,315,8.0,14.0,79,-99.99,,,-99.99,,2013-09-02 07:01:00,
2013-09-02 02:42:00,61.0,57.0,-100.00,NW,315,4.0,9.0,86,-99.99,,,-99.99,,2013-09-02 07:42:00,
2013-09-02 02:52:00,61.0,57.0,-100.00,NW,315,4.0,9.0,86,-99.99,,,-99.99,,2013-09-02 07:52:00,
2013-09-02 03:02:00,61.0,57.0,-100.00,NW,315,4.0,9.0,86,-99.99,,,-99.99,,2013-09-02 08:02:00,
2013-09-02 03:42:00,59.0,56.0,-100.00,WNW,290,4.0,9.0,91,-99.99,,,-99.99,,2013-09-02 08:42:00,
2013-09-02 03:52:00,59.0,56.0,-100.00,WNW,290,4.0,9.0,91,-99.99,,,-99.99,,2013-09-02 08:52:00,
2013-09-02 04:01:00,59.0,56.0,-100.00,WNW,290,4.0,9.0,91,-99.99,,,-99.99,,2013-09-02 09:01:00,
2013-09-02 04:44:00,57.0,55.0,-100.00,WNW,300,3.0,6.0,94,-99.99,,,-99.99,,2013-09-02 09:44:00,
2013-09-02 04:53:00,57.0,55.0,-100.00,WNW,300,3.0,6.0,94,-99.99,,,-99.99,,2013-09-02 09:53:00,
2013-09-02 05:03:00,57.0,55.0,-100.00,WNW,300,3.0,6.0,94,-99.99,,,-99.99,,2013-09-02 10:03:00,
2013-09-02 05:10:00,54.0,53.0,-100.00,NW,325,2.0,5.0,95,-99.99,,,-99.99,,2013-09-02 10:10:00,
2013-09-02 05:42:00,54.0,53.0,-100.00,NW,325,2.0,5.0,95,-99.99,,,-99.99,,2013-09-02 10:42:00,
2013-09-02 05:53:00,54.0,53.0,-100.00,NW,325,2.0,5.0,95,-99.99,,,-99.99,,2013-09-02 10:53:00,
2013-09-02 06:03:00,54.0,53.0,-100.00,NW,325,2.0,5.0,95,-99.99,,,-99.99,,2013-09-02 11:03:00,
2013-09-02 06:42:00,57.0,56.0,-100.00,NW,310,2.0,7.0,96,-99.99,,,-99.99,,2013-09-02 11:42:00,
2013-09-02 06:52:00,57.0,56.0,-100.00,NW,310,2.0,7.0,96,-99.99,,,-99.99,,2013-09-02 11:52:00,
2013-09-02 07:02:00,57.0,56.0,-100.00,NW,310,2.0,7.0,96,-99.99,,,-99.99,,2013-09-02 12:02:00,
2013-09-02 07:10:00,57.0,53.0,-100.00,NW,310,3.0,11.0,84,-99.99,,,-99.99,,2013-09-02 12:10:00,
2013-09-02 07:43:00,57.0,53.0,-100.00,NW,310,3.0,11.0,84,-99.99,,,-99.99,,2013-09-02 12:43:00,
2013-09-02 07:52:00,57.0,53.0,-100.00,NW,310,3.0,11.0,84,-99.99,,,-99.99,,2013-09-02 12:52:00,
2013-09-02 08:02:00,57.0,53.0,-100.00,NW,310,3.0,11.0,84,-99.99,,,-99.99,,2013-09-02 13:02:00,
2013-09-02 08:42:00,60.0,52.0,-100.00,North,0,6.0,11.0,75,-99.99,,,-99.99,,2013-09-02 13:42:00,
2013-09-02 08:52:00,60.0,52.0,-100.00,North,0,6.0,11.0,75,-99.99,,,-99.99,,2013-09-02 13:52:00,
2013-09-02 09:02:00,60.0,52.0,-100.00,North,0,6.0,11.0,75,-99.99,,,-99.99,,2013-09-02 14:02:00,
2013-09-02 09:10:00,59.0,51.0,-100.00,NW,310,9.0,12.0,74,-99.99,,,-99.99,,2013-09-02 14:10:00,
2013-09-02 09:43:00,59.0,51.0,-100.00,NW,310,9.0,12.0,74,-99.99,,,-99.99,,2013-09-02 14:43:00,
2013-09-02 09:52:00,59.0,51.0,-100.00,NW,310,9.0,12.0,74,-99.99,,,-99.99,,2013-09-02 14:52:00,
2013-09-02 10:02:00,59.0,51.0,-100.00,NW,310,9.0,12.0,74,-99.99,,,-99.99,,2013-09-02 15:02:00,
2013-09-02 10:45:00,60.0,50.0,-100.00,WNW,285,6.0,12.0,71,-99.99,,,-99.99,,2013-09-02 15:45:00,
2013-09-02 10:55:00,60.0,50.0,-100.00,WNW,285,6.0,12.0,71,-99.99,,,-99.99,,2013-09-02 15:55:00,
2013-09-02 11:04:00,60.0,50.0,-100.00,WNW,285,6.0,12.0,71,-99.99,,,-99.99,,2013-09-02 16:04:00,
2013-09-02 11:43:00,63.0,50.0,-100.00,NNW,335,4.0,12.0,63,-99.99,,,-99.99,,2013-09-02 16:43:00,
2013-09-02 11:53:00,63.0,50.0,-100.00,NNW,335,4.0,12.0,63,-99.99,,,-99.99,,2013-09-02 16:53:00,
2013-09-02 12:03:00,63.0,50.0,-100.00,NNW,335,4.0,12.0,63,-99.99,,,-99.99,,2013-09-02 17:03:00,
2013-09-02 12:11:00,63.0,49.0,-100.00,NW,325,7.0,13.0,61,-99.99,,,-99.99,,2013-09-02 17:11:00,
2013-09-02 12:45:00,63.0,49.0,-100.00,NW,325,7.0,13.0,61,-99.99,,,-99.99,,2013-09-02 17:45:00,
2013-09-02 12:52:00,63.0,49.0,-100.00,NW,325,7.0,13.0,61,-99.99,,,-99.99,,2013-09-02 17:52:00,
2013-09-02 13:02:00,63.0,49.0,-100.00,NW,325,7.0,13.0,61,-99.99,,,-99.99,,2013-09-02 18:02:00,
2013-09-02 13:42:00,66.0,48.0,-100.00,NW,310,7.0,13.0,52,-99.99,,,-99.99,,2013-09-02 18:42:00,
2013-09-02 13:52:00,66.0,48.0,-100.00,NW,310,7.0,13.0,52,-99.99,,,-99.99,,2013-09-02 18:52:00,
2013-09-02 14:02:00,66.0,48.0,-100.00,NW,310,7.0,13.0,52,-99.99,,,-99.99,,2013-09-02 19:02:00,
2013-09-02 14:10:00,67.0,47.0,-100.00,NNW,330,7.0,17.0,48,-99.99,,,-99.99,,2013-09-02 19:10:00,
2013-09-02 14:42:00,67.0,47.0,-100.00,NNW,330,7.0,17.0,48,-99.99,,,-99.99,,2013-09-02 19:42:00,
2013-09-02 14:52:00,67.0,47.0,-100.00,NNW,330,7.0,17.0,48,-99.99,,,-99.99,,2013-09-02 19:52:00,
2013-09-02 15:02:00,67.0,47.0,-100.00,NNW,330,7.0,17.0,48,-99.99,,,-99.99,,2013-09-02 20:02:00,
2013-09-02 15:42:00,69.0,44.0,-100.00,NW,325,9.0,16.0,41,-99.99,,,-99.99,,2013-09-02 20:42:00,
2013-09-02 15:52:00,69.0,44.0,-100.00,NW,325,9.0,16.0,41,-99.99,,,-99.99,,2013-09-02 20:52:00,
2013-09-02 16:02:00,69.0,44.0,-100.00,NW,325,9.0,16.0,41,-99.99,,,-99.99,,2013-09-02 21:02:00,
2013-09-02 16:12:00,71.0,44.0,-100.00,North,0,9.0,16.0,38,-99.99,,,-99.99,,2013-09-02 21:12:00,
2013-09-02 16:44:00,71.0,44.0,-100.00,North,0,9.0,16.0,38,-99.99,,,-99.99,,2013-09-02 21:44:00,
2013-09-02 16:55:00,71.0,44.0,-100.00,North,0,9.0,16.0,38,-99.99,,,-99.99,,2013-09-02 21:55:00,
2013-09-02 17:04:00,71.0,44.0,-100.00,North,0,9.0,16.0,38,-99.99,,,-99.99,,2013-09-02 22:04:00,
2013-09-02 17:10:00,71.0,44.0,-100.00,NNW,335,7.0,13.0,39,-99.99,,,-99.99,,2013-09-02 22:10:00,
2013-09-02 17:44:00,71.0,44.0,-100.00,NNW,335,7.0,13.0,39,-99.99,,,-99.99,,2013-09-02 22:44:00,
2013-09-02 17:54:00,71.0,44.0,-100.00,NNW,335,7.0,13.0,39,-99.99,,,-99.99,,2013-09-02 22:54:00,
2013-09-02 18:03:00,71.0,44.0,-100.00,NNW,335,7.0,13.0,39,-99.99,,,-99.99,,2013-09-02 23:03:00,
2013-09-02 18:10:00,69.0,43.0,-100.00,North,0,9.0,14.0,39,-99.99,,,-99.99,,2013-09-02 23:10:00,
2013-09-02 18:42:00,69.0,43.0,-100.00,North,0,9.0,14.0,39,-99.99,,,-99.99,,2013-09-02 23:42:00,
2013-09-02 18:53:00,69.0,43.0,-100.00,North,0,9.0,14.0,39,-99.99,,,-99.99,,2013-09-02 23:53:00,
2013-09-02 19:01:00,69.0,43.0,-100.00,North,0,9.0,14.0,39,-99.99,,,-99.99,,2013-09-03 00:01:00,
2013-09-02 19:42:00,66.0,46.0,-100.00,NNE,15,6.0,10.0,49,-99.99,,,-99.99,,2013-09-03 00:42:00,
2013-09-02 19:52:00,66.0,46.0,-100.00,NNE,15,6.0,10.0,49,-99.99,,,-99.99,,2013-09-03 00:52:00,
2013-09-02 20:02:00,66.0,46.0,-100.00,NNE,15,6.0,10.0,49,-99.99,,,-99.99,,2013-09-03 01:02:00,
2013-09-02 20:42:00,58.0,49.0,-100.00,NNE,25,5.0,7.0,71,-99.99,,,-99.99,,2013-09-03 01:42:00,
2013-09-02 20:52:00,58.0,49.0,-100.00,NNE,25,5.0,7.0,71,-99.99,,,-99.99,,2013-09-03 01:52:00,
2013-09-02 21:02:00,58.0,49.0,-100.00,NNE,25,5.0,7.0,71,-99.99,,,-99.99,,2013-09-03 02:02:00,
2013-09-02 21:10:00,54.0,50.0,-100.00,North,0,4.0,6.0,88,-99.99,,,-99.99,,2013-09-03 02:10:00,
2013-09-02 21:42:00,54.0,50.0,-100.00,North,0,4.0,6.0,88,-99.99,,,-99.99,,2013-09-03 02:42:00,
2013-09-02 21:52:00,54.0,50.0,-100.00,North,0,4.0,6.0,88,-99.99,,,-99.99,,2013-09-03 02:52:00,
2013-09-02 22:02:00,54.0,50.0,-100.00,North,0,4.0,6.0,88,-99.99,,,-99.99,,2013-09-03 03:02:00,
2013-09-02 22:11:00,50.0,49.0,-100.00,North,0,4.0,4.0,94,-99.99,,,-99.99,,2013-09-03 03:11:00,
2013-09-02 22:45:00,50.0,49.0,-100.00,North,0,4.0,4.0,94,-99.99,,,-99.99,,2013-09-03 03:45:00,
2013-09-02 22:55:00,50.0,49.0,-100.00,North,0,4.0,4.0,94,-99.99,,,-99.99,,2013-09-03 03:55:00,
2013-09-02 23:04:00,50.0,49.0,-100.00,North,0,4.0,4.0,94,-99.99,,,-99.99,,2013-09-03 04:04:00,
2013-09-02 23:10:00,48.0,47.0,-100.00,NW,320,0.0,2.0,96,-99.99,,,-99.99,,2013-09-03 04:10:00,
2013-09-02 23:44:00,48.0,47.0,-100.00,NW,320,0.0,2.0,96,-99.99,,,-99.99,,2013-09-03 04:44:00,
2013-09-02 23:53:00,48.0,47.0,-100.00,NW,320,0.0,2.0,96,-99.99,,,-99.99,,2013-09-03 04:53:00,